Location: Prosper
(33.2362°N, 96.8011°W)
Time: 00:25:05
(UTC+00:00)

SJ 16-02 - Pass Details

Date: 03 December 2021
Orbit: 605 x 616 km, 75.0° (Epoch: 17 January)

Event Time Altitude Azimuth Distance (km) Brightness Sun altitude
Rises 12:24:01 0° 193° (SSW) 2,851 4.9 -10.6°
Reaches altitude 10° 12:26:15 10° 192° (SSW) 1,949 4.0 -10.1°
Maximum altitude 12:30:36 84° 105° (ESE) 613 1.4 -9.3°
Drops below altitude 10° 12:34:58 10° 17° (NNE) 1,957 3.9 -8.4°
Sets 12:37:12 0° 17° (NNE) 2,863 4.7 -8.0°
